[[{"header":{"parameterUnit":"m.s-1","parameterCategory":1,"la1":30.2992,"la2":30.254,"lo1":-89.0895,"lo2":-89.0443,"dy":0.0025,"dx":0.0025,"nx":19,"ny":19,"refTime":"2026-05-10T21:00:00:Z","depth":0,"parameterNumber":2,"parameterNumberName":"U-component_of_WINDS"},"data":[0,0,0,-4.0731,-4.0734,-4.0869,-4.0869,-4.1074,-4.1076,0,0,0,0,0,0,0,0,0,0,0,-4.0711,-4.0713,-4.073,-4.0734,-4.0869,-4.0869,-4.1073,-4.1076,0,0,0,0,0,0,0,0,0,0,0,-4.071,-4.0712,-4.0715,-4.0735,-4.0869,-4.0869,-4.1073,-4.096,0,0,0,0,0,0,0,0,0,0,-4.0823,-4.0825,-4.0712,-4.0715,-4.0736,-4.0869,-4.087,-4.0954,-4.0967,-4.1027,0,-4.1086,0,-4.1084,-4.1092,-4.1093,0,0,0,-4.0719,-4.0814,-4.0832,-4.0715,-4.0737,-4.0869,-4.0804,-4.0961,-4.0975,-4.1044,-4.1088,-4.1095,-4.1088,-4.1093,-4.1094,-4.1492,-4.1495,0,0,-4.0712,-4.0746,-4.0822,-4.0843,-4.0825,-4.08,-4.0808,-4.0969,-4.1019,-4.1089,-4.1099,-4.1091,-4.1095,-4.1097,-4.149,-4.1493,0,0,0,-4.0701,-4.0742,-4.0755,-4.0835,-4.0857,-4.0804,-4.0814,-4.1012,-4.1014,-4.1101,-4.1094,-4.1096,-4.1099,-4.1487,-4.1491,-4.1654,0,0,0,-4.0695,-4.0735,-4.0752,-4.0775,-4.0855,-4.0937,-4.0854,-4.1003,-4.102,-4.1093,-4.1096,-4.1101,-4.1484,-4.1489,-4.1643,-4.1726,0,0,0,-4.0695,-4.0734,-4.0761,-4.0776,-4.0835,-4.0933,-4.0943,-4.1005,-4.1016,-4.1093,-4.1102,-4.1482,-4.1488,-4.1634,-4.171,-4.1843,0,0,0,-4.0705,-4.0902,-4.0764,-4.0981,-4.0835,-4.1032,-4.0942,-4.1087,-4.1172,-4.1097,-4.1484,-4.1491,-4.1631,-4.17,-4.1833,-4.1963,-4.202,0,0,-4.0973,-4.0936,-4.1061,-4.0941,-4.1173,-4.1009,-4.1263,-4.1308,-4.1283,-4.1424,-4.1433,-4.1646,-4.1709,-4.1841,-4.2319,-4.2364,0,0,0,-4.1158,-4.1249,-4.1302,-4.1386,-4.1424,-4.1465,-4.1467,-4.1483,-4.1601,-4.1363,-4.1727,-4.1763,-4.1839,-4.19,-4.1939,-4.2003,-4.1519,-4.1518,-4.1518,-4.159,-4.1547,-4.1752,-4.1727,-4.1808,-4.1808,-4.187,-4.1892,-4.1824,-4.1911,-4.1954,-4.225,-4.2322,-4.2351,-4.2418,-4.2016,-4.2017,-4.2017,-4.2018,-4.1982,-4.2106,-4.2011,-4.2176,-4.213,-4.2268,-4.2274,-4.2222,-4.2344,-4.2213,-4.2278,-4.2143,-4.2402,-4.2458,-4.2029,-4.2027,-4.2026,-4.2025,-4.2024,-4.2264,-4.2316,-4.2332,-4.2448,-4.2541,-4.2506,-4.2628,-4.2579,-4.2535,-4.2599,-4.264,-4.2638,-4.2632,-4.2621,-4.2622,-4.2623,-4.2624,-4.2625,-4.2625,-4.2552,-4.2564,-4.2673,-4.2731,-4.2778,-4.2833,-4.2833,-4.2878,-4.2915,-4.2871,-4.2871,-4.2797,-4.2433,-4.2345,-4.2641,-4.2638,-4.2636,-4.2635,-4.2634,-4.2973,-4.2869,-4.3038,-4.3086,-4.3149,-4.3246,-4.3181,-4.3276,-4.3305,-4.3367,-4.3277,-4.3015,-4.2974,-4.2943,-4.287,-4.3284,-4.3284,-4.3284,-4.3284,-4.3213,-4.3186,-4.3349,-4.3427,-4.3498,-4.3457,-4.3649,-4.3651,-4.3635,-4.3651,-4.3583,-4.348,-4.3451,-4.3427,-4.3385,-4.3317,-4.3835,-4.3836,-4.3836,-4.3471,-4.3449,-4.3623,-4.3607,-4.3652,-4.3692,-4.3872,-4.3966,-4.3926,-4.3858,-4.3663,-4.364,-4.3473,-4.3421,-4.3353,-4.329,-4.3163,0,0]},{"header":{"parameterUnit":"m.s-1","parameterCategory":1,"la1":30.2992,"la2":30.254,"lo1":-89.0895,"lo2":-89.0443,"dy":0.0025,"dx":0.0025,"nx":19,"ny":19,"refTime":"2026-05-10T21:00:00:Z","depth":0,"parameterNumber":3,"parameterNumberName":"V-component_of_WINDS"},"data":[0,0,0,-3.3405,-3.3407,-3.3465,-3.3465,-3.3547,-3.3548,0,0,0,0,0,0,0,0,0,0,0,-3.3395,-3.3395,-3.3405,-3.3407,-3.3465,-3.3465,-3.3547,-3.3548,0,0,0,0,0,0,0,0,0,0,0,-3.3394,-3.3395,-3.3396,-3.3407,-3.3465,-3.3465,-3.3547,-3.35,0,0,0,0,0,0,0,0,0,0,-3.3442,-3.3439,-3.3395,-3.3396,-3.3408,-3.3465,-3.3465,-3.3497,-3.3503,-3.3524,0,-3.3547,0,-3.3549,-3.3554,-3.3554,0,0,0,-3.3402,-3.3435,-3.3444,-3.3396,-3.3408,-3.3465,-3.3437,-3.35,-3.3506,-3.3532,-3.3548,-3.3551,-3.355,-3.3554,-3.3555,-3.3699,-3.37,0,0,-3.3399,-3.3408,-3.344,-3.3449,-3.3442,-3.3435,-3.3439,-3.3504,-3.3522,-3.3548,-3.3553,-3.3551,-3.3555,-3.3556,-3.3698,-3.3699,0,0,0,-3.3393,-3.3407,-3.3414,-3.3445,-3.3455,-3.3437,-3.3441,-3.3519,-3.3521,-3.3553,-3.3552,-3.3556,-3.3557,-3.3697,-3.3699,-3.3753,0,0,0,-3.3391,-3.3403,-3.3413,-3.342,-3.3454,-3.3488,-3.3456,-3.3516,-3.3523,-3.3552,-3.3556,-3.3558,-3.3696,-3.3698,-3.3749,-3.3777,0,0,0,-3.3389,-3.3403,-3.3413,-3.342,-3.3446,-3.3487,-3.3492,-3.3518,-3.3523,-3.3554,-3.3558,-3.3696,-3.3698,-3.3746,-3.3772,-3.3817,0,0,0,-3.3389,-3.3461,-3.3414,-3.3494,-3.3445,-3.352,-3.3492,-3.3547,-3.3581,-3.3556,-3.3697,-3.3699,-3.3745,-3.3768,-3.3813,-3.3857,-3.3876,0,0,-3.3486,-3.3473,-3.3519,-3.3479,-3.3565,-3.3511,-3.3604,-3.3625,-3.3619,-3.3672,-3.3676,-3.375,-3.3771,-3.3816,-3.398,-3.3995,0,0,0,-3.3553,-3.3586,-3.3607,-3.3639,-3.3657,-3.3674,-3.368,-3.3687,-3.3731,-3.3649,-3.3779,-3.3791,-3.3817,-3.3837,-3.385,-3.3871,-3.3708,-3.3708,-3.3708,-3.3705,-3.3692,-3.3767,-3.3761,-3.3792,-3.3796,-3.382,-3.383,-3.3809,-3.384,-3.3856,-3.3956,-3.3981,-3.399,-3.4012,-3.3878,-3.3878,-3.3878,-3.3878,-3.3844,-3.3889,-3.3857,-3.3919,-3.3904,-3.3955,-3.396,-3.3943,-3.3988,-3.3944,-3.3966,-3.3919,-3.4007,-3.4026,-3.3882,-3.3881,-3.3881,-3.3881,-3.388,-3.3942,-3.3961,-3.3968,-3.4011,-3.4046,-3.4036,-3.408,-3.4065,-3.4052,-3.4074,-3.4088,-3.4087,-3.4084,-3.4082,-3.4082,-3.4082,-3.4083,-3.4083,-3.4083,-3.404,-3.4047,-3.4085,-3.4108,-3.4126,-3.4146,-3.4149,-3.4165,-3.4179,-3.4165,-3.4165,-3.414,-3.4018,-3.3988,-3.4088,-3.4087,-3.4087,-3.4086,-3.4086,-3.4187,-3.4151,-3.4211,-3.4228,-3.4252,-3.4286,-3.4266,-3.43,-3.4311,-3.4332,-3.4302,-3.4214,-3.4201,-3.419,-3.4165,-3.4305,-3.4305,-3.4305,-3.4305,-3.4269,-3.426,-3.4317,-3.4345,-3.437,-3.4358,-3.4423,-3.4425,-3.4421,-3.4427,-3.4404,-3.4369,-3.4359,-3.4351,-3.4337,-3.4313,-3.4488,-3.4489,-3.4489,-3.4358,-3.435,-3.441,-3.4406,-3.4422,-3.4437,-3.4498,-3.453,-3.4518,-3.4496,-3.4431,-3.4423,-3.4366,-3.4348,-3.4326,-3.4305,-3.426,0,0]}]]